DW3499 Weather Reports


time (UTC)temp
C
wind
direction
speed
KPH
gust
KPH
rain 1hr
cm
rain 24hr
cm
rain mn
cm
humidity
%
barometer
mb
20211017150824 12 0 0.0 0.0 0.00 0.00 0.00 73 1011.9
20211017150302 12 0 0.0 0.0 0.00 0.00 0.00 72 1011.6
20211017145740 12 0 0.0 0.0 0.00 0.00 0.00 71 1011.6
20211017145218 13 0 0.0 0.0 0.00 0.00 0.00 70 1011.8
20211017144656 13 0 0.0 0.0 0.00 0.00 0.00 70 1011.8
20211017144134 13 0 0.0 0.0 0.00 0.00 0.00 71 1011.9
20211017143612 12 0 0.0 0.0 0.00 0.00 0.00 75 1011.9
20211017143050 12 0 0.0 0.0 0.00 0.00 0.00 76 1011.9
20211017142528 12 0 0.0 0.0 0.00 0.00 0.00 75 1011.7
20211017142006 12 0 0.0 0.0 0.00 0.00 0.00 75 1011.8
20211017141444 12 0 0.0 0.0 0.00 0.00 0.00 74 1011.7
20211017140922 11 0 0.0 0.0 0.00 0.00 0.00 74 1011.5
20211017140400 11 0 0.0 0.0 0.00 0.00 0.00 73 1011.6
20211017135838 11 0 0.0 0.0 0.00 0.00 0.00 72 1011.6
20211017135316 11 0 0.0 0.0 0.00 0.00 0.00 73 1011.5
20211017134754 11 0 0.0 0.0 0.00 0.00 0.00 72 1011.4
20211017134232 11 0 0.0 0.0 0.00 0.00 0.00 70 1011.4
20211017133710 11 0 0.0 0.0 0.00 0.00 0.00 71 1011.6
20211017133148 11 0 0.0 0.0 0.00 0.00 0.00 72 1011.6
20211017132626 11 0 0.0 0.0 0.00 0.00 0.00 72 1011.5
20211017132104 10 0 0.0 0.0 0.00 0.00 0.00 74 1011.4
20211017131542 10 0 0.0 0.0 0.00 0.00 0.00 74 1011.4
20211017131020 10 0 0.0 0.0 0.00 0.00 0.00 75 1011.3
20211017130458 10 0 0.0 0.0 0.00 0.00 0.00 77 1011.4
20211017125936 10 0 0.0 0.0 0.00 0.00 0.00 79 1011.4
20211017125414 9 0 0.0 0.0 0.00 0.00 0.00 80 1011.3
20211017124852 8 0 0.0 0.0 0.00 0.00 0.00 79 1011.2
20211017124331 9 0 0.0 0.0 0.00 0.00 0.00 79 1011.2
20211017123810 9 0 0.0 0.0 0.00 0.00 0.00 79 1011.2
20211017123248 9 0 0.0 0.0 0.00 0.00 0.00 79 1011.3
20211017122726 9 0 0.0 0.0 0.00 0.00 0.00 79 1011.2
20211017122204 9 0 0.0 0.0 0.00 0.00 0.00 79 1011.2
20211017121642 9 0 0.0 0.0 0.00 0.00 0.00 79 1011.4
20211017121120 9 0 0.0 0.0 0.00 0.00 0.00 80 1011.4
20211017120558 8 0 0.0 0.0 0.00 0.00 0.00 80 1011.4
20211017120036 8 0 0.0 0.0 0.00 0.00 0.00 80 1011.3
20211017115514 8 0 0.0 0.0 0.00 0.00 0.00 80 1011.4
20211017114952 9 0 0.0 0.0 0.00 0.00 0.00 80 1011.3
20211017114430 9 0 0.0 0.0 0.00 0.00 0.00 80 1011.3
20211017113908 9 0 0.0 0.0 0.00 0.00 0.00 80 1011.3
20211017113346 9 0 0.0 0.0 0.00 0.00 0.00 80 1011.4
20211017112824 9 0 0.0 0.0 0.00 0.00 0.00 80 1011.4
20211017112305 9 0 0.0 0.0 0.00 0.00 0.00 80 1011.4
20211017111740 9 0 0.0 0.0 0.00 0.00 0.00 79 1011.4
20211017111219 10 0 0.0 0.0 0.00 0.00 0.00 79 1011.5
20211017110656 10 0 0.0 0.0 0.00 0.00 0.00 78 1011.5
20211017110134 10 0 0.0 0.0 0.00 0.00 0.00 77 1011.6
20211017105612 10 0 0.0 0.0 0.00 0.00 0.00 77 1011.6
20211017105050 10 0 0.0 0.0 0.00 0.00 0.00 76 1011.7
20211017104528 10 0 0.0 0.0 0.00 0.00 0.00 76 1011.7
20211017104006 10 0 0.0 0.0 0.00 0.00 0.00 76 1011.7
20211017103444 10 0 0.0 0.0 0.00 0.00 0.00 75 1011.8
20211017102922 10 0 0.0 0.0 0.00 0.00 0.00 76 1011.8
20211017102400 10 0 0.0 0.0 0.00 0.00 0.00 75 1011.9
20211017101838 10 0 0.0 0.0 0.00 0.00 0.00 75 1011.9
20211017101316 10 0 0.0 0.0 0.00 0.00 0.00 74 1012.0
20211017100754 10 0 0.0 0.0 0.00 0.00 0.00 74 1011.9
20211017100232 10 0 0.0 0.0 0.00 0.00 0.00 73 1012.0
20211017095710 10 0 0.0 0.0 0.00 0.00 0.00 73 1012.0
20211017095149 10 0 0.0 0.0 0.00 0.00 0.00 73 1011.9
20211017094626 10 0 0.0 0.0 0.00 0.00 0.00 72 1011.9
20211017094104 10 0 0.0 0.0 0.00 0.00 0.00 72 1012.0
20211017093542 10 0 0.0 0.0 0.00 0.00 0.00 71 1012.1
20211017093020 11 0 0.0 0.0 0.00 0.00 0.00 71 1012.1
20211017092459 11 0 0.0 0.0 0.00 0.00 0.00 70 1012.1
20211017091936 11 0 0.0 0.0 0.00 0.00 0.00 71 1012.2
20211017091414 11 0 0.0 0.0 0.00 0.00 0.00 70 1012.3
20211017090852 11 0 0.0 0.0 0.00 0.00 0.00 70 1012.3
20211017090330 11 0 0.0 0.0 0.00 0.00 0.00 70 1012.4
20211017085808 11 0 0.0 0.0 0.00 0.00 0.00 70 1012.4
20211017085246 11 0 0.0 0.0 0.00 0.00 0.00 69 1012.4
20211017084724 11 0 0.0 0.0 0.00 0.00 0.00 68 1012.4
20211017084202 12 0 0.0 0.0 0.00 0.00 0.00 67 1012.5
20211017083640 12 0 0.0 0.0 0.00 0.00 0.00 66 1012.4
20211017083118 12 0 0.0 0.0 0.00 0.00 0.00 66 1012.5
20211017082556 12 0 0.0 0.0 0.00 0.00 0.00 65 1012.5
20211017082034 12 0 0.0 0.0 0.00 0.00 0.00 63 1012.4
20211017081512 12 0 0.0 0.0 0.00 0.00 0.00 63 1012.5
20211017080950 12 0 0.0 0.0 0.00 0.00 0.00 61 1012.6
20211017080428 13 0 0.0 0.0 0.00 0.00 0.00 59 1012.6
20211017075906 13 0 0.0 0.0 0.00 0.00 0.00 59 1012.6
20211017075344 13 0 0.0 0.0 0.00 0.00 0.00 58 1012.6
20211017074822 13 0 0.0 0.0 0.00 0.00 0.00 58 1012.6
20211017074300 13 0 0.0 0.0 0.00 0.00 0.00 57 1012.6
20211017073738 13 0 0.0 0.0 0.00 0.00 0.00 56 1012.6
20211017073216 14 0 0.0 0.0 0.00 0.00 0.00 54 1012.5
20211017072654 14 0 0.0 0.0 0.00 0.00 0.00 54 1012.5
20211017072132 14 0 0.0 0.0 0.00 0.00 0.00 53 1012.6
20211017071610 14 0 0.0 0.0 0.00 0.00 0.00 53 1012.7
20211017071048 13 0 0.0 0.0 0.00 0.00 0.00 53 1012.8
20211017070526 13 0 0.0 0.0 0.00 0.00 0.00 56 1012.8
20211017070004 13 0 0.0 0.0 0.00 0.00 0.00 55 1012.8
20211017065443 13 0 0.0 0.0 0.00 0.00 0.00 59 1012.9
20211017064921 12 0 0.0 0.0 0.00 0.00 0.00 63 1012.9
20211017064359 12 0 0.0 0.0 0.00 0.00 0.00 63 1012.9
20211017063837 13 0 0.0 0.0 0.00 0.00 0.00 62 1012.9
20211017063315 13 0 0.0 0.0 0.00 0.00 0.00 64 1012.9
20211017062753 12 0 0.0 0.0 0.00 0.00 0.00 69 1013.0
20211017062231 13 0 0.0 0.0 0.00 0.00 0.00 69 1012.9
20211017061709 13 0 0.0 0.0 0.00 0.00 0.00 69 1013.0
20211017061147 13 0 0.0 0.0 0.00 0.00 0.00 71 1013.0
20211017060625 13 0 0.0 0.0 0.00 0.00 0.00 71 1013.0
20211017060103 13 0 0.0 0.0 0.00 0.00 0.00 72 1013.0
20211017055540 13 0 0.0 0.0 0.00 0.00 0.00 73 1013.1
20211017055019 13 0 0.0 0.0 0.00 0.00 0.00 74 1013.0
20211017054457 13 0 0.0 0.0 0.00 0.00 0.00 73 1013.0
20211017053934 13 0 0.0 0.0 0.00 0.00 0.00 73 1013.0
20211017053413 13 0 0.0 0.0 0.00 0.00 0.00 73 1013.0
20211017052851 13 0 0.0 0.0 0.00 0.00 0.00 73 1012.9
20211017052329 13 0 0.0 0.0 0.00 0.00 0.00 73 1012.9
20211017051806 13 0 0.0 0.0 0.00 0.00 0.00 73 1012.9
20211017051245 13 0 0.0 0.0 0.00 0.00 0.00 73 1012.9
20211017050723 13 0 0.0 0.0 0.00 0.00 0.00 72 1012.9
20211017050201 13 0 0.0 0.0 0.00 0.00 0.00 72 1012.9
20211017045639 14 0 0.0 0.0 0.00 0.00 0.00 72 1012.9
20211017045117 14 0 0.0 0.0 0.00 0.00 0.00 71 1012.9
20211017044555 14 0 0.0 0.0 0.00 0.00 0.00 71 1012.8
20211017044032 15 0 0.0 0.0 0.00 0.00 0.00 70 1012.8
20211017043510 15 0 0.0 0.0 0.00 0.00 0.00 70 1012.9
20211017042948 15 0 0.0 0.0 0.00 0.00 0.00 69 1012.9
20211017042427 15 0 0.0 0.0 0.00 0.00 0.00 68 1012.9
20211017041904 15 0 0.0 0.0 0.00 0.00 0.00 67 1012.7
20211017041340 15 0 0.0 0.0 0.00 0.00 0.00 66 1012.5
20211017040817 15 0 0.0 0.0 0.00 0.00 0.00 64 1012.6
20211017040255 15 0 0.0 0.0 0.00 0.00 0.00 63 1012.5
20211017035733 16 0 0.0 0.0 0.00 0.00 0.00 61 1012.5
20211017035211 16 0 0.0 0.0 0.00 0.00 0.00 58 1012.6
20211017034651 16 0 0.0 0.0 0.00 0.00 0.00 56 1012.6
20211017034128 17 0 0.0 0.0 0.00 0.00 0.00 54 1012.6
20211017033606 17 0 0.0 0.0 0.00 0.00 0.00 54 1012.5
20211017033045 17 0 0.0 0.0 0.00 0.00 0.00 53 1012.5
20211017032522 17 0 0.0 0.0 0.00 0.00 0.00 54 1012.6
20211017032001 17 0 0.0 0.0 0.00 0.00 0.00 51 1012.6
20211017031438 17 0 0.0 0.0 0.00 0.00 0.00 50 1012.5
20211017030917 17 0 0.0 0.0 0.00 0.00 0.00 49 1012.5
20211017030355 18 0 0.0 0.0 0.00 0.00 0.00 49 1012.5
20211017025832 18 0 0.0 0.0 0.00 0.00 0.00 47 1012.6
20211017025311 18 0 0.0 0.0 0.00 0.00 0.00 46 1012.5
20211017024748 18 0 0.0 0.0 0.00 0.00 0.00 46 1012.4
20211017024226 19 0 0.0 0.0 0.00 0.00 0.00 44 1012.4
20211017023704 19 0 0.0 0.0 0.00 0.00 0.00 42 1012.3
20211017023143 20 0 0.0 0.0 0.00 0.00 0.00 41 1012.4
20211017022620 20 0 0.0 0.0 0.00 0.00 0.00 41 1012.4
20211017022058 20 0 0.0 0.0 0.00 0.00 0.00 39 1012.4
20211017021537 21 0 0.0 0.0 0.00 0.00 0.00 38 1012.4
20211017021014 22 0 0.0 0.0 0.00 0.00 0.00 32 1012.2
20211017020453 22 0 0.0 0.0 0.00 0.00 0.00 23 1012.1
20211017015931 22 0 0.0 0.0 0.00 0.00 0.00 23 1012.0
20211017015408 22 0 0.0 0.0 0.00 0.00 0.00 23 1012.1
20211017014844 23 0 0.0 0.0 0.00 0.00 0.00 24 1012.0
20211017014322 23 0 0.0 0.0 0.00 0.00 0.00 23 1012.0
20211017013801 23 0 0.0 0.0 0.00 0.00 0.00 23 1011.9
20211017013239 23 0 0.0 0.0 0.00 0.00 0.00 24 1011.8
20211017012717 23 0 0.0 0.0 0.00 0.00 0.00 23 1011.9
20211017012155 23 0 0.0 0.0 0.00 0.00 0.00 23 1011.9
20211017011633 23 0 0.0 0.0 0.00 0.00 0.00 23 1011.9
20211017011111 24 0 0.0 0.0 0.00 0.00 0.00 22 1011.8
20211017010548 24 0 0.0 0.0 0.00 0.00 0.00 21 1011.8
20211017010027 25 0 0.0 0.0 0.00 0.00 0.00 21 1011.8
20211017005504 25 0 0.0 0.0 0.00 0.00 0.00 21 1011.8
20211017004943 25 0 0.0 0.0 0.00 0.00 0.00 21 1011.8
20211017004421 25 0 0.0 0.0 0.00 0.00 0.00 21 1011.9
20211017003858 25 0 0.0 0.0 0.00 0.00 0.00 21 1011.9
20211017003336 26 0 0.0 0.0 0.00 0.00 0.00 21 1012.0
20211017002814 26 0 0.0 0.0 0.00 0.00 0.00 20 1012.0
20211017002252 26 0 0.0 0.0 0.00 0.00 0.00 20 1012.0
20211017001730 26 0 0.0 0.0 0.00 0.00 0.00 21 1012.0
20211017001209 26 0 0.0 0.0 0.00 0.00 0.00 21 1012.0
20211017000646 26 0 0.0 0.0 0.00 0.00 0.00 21 1012.0
20211017000125 26 0 0.0 0.0 0.00 0.00 0.00 22 1012.0
20211016235603 26 0 0.0 0.0 0.00 0.00 0.00 22 1012.0
20211016235040 26 0 0.0 0.0 0.00 0.00 0.00 28 1012.1
20211016234519 26 0 0.0 0.0 0.00 0.00 0.00 28 1012.1
20211016233957 26 0 0.0 0.0 0.00 0.00 0.00 27 1012.1
20211016233434 26 0 0.0 0.0 0.00 0.00 0.00 27 1012.2
20211016232913 26 0 0.0 0.0 0.00 0.00 0.00 28 1012.2
20211016232351 26 0 0.0 0.0 0.00 0.00 0.00 29 1012.3
20211016231829 26 0 0.0 0.0 0.00 0.00 0.00 28 1012.3
20211016231307 26 0 0.0 0.0 0.00 0.00 0.00 26 1012.4
20211016230744 26 0 0.0 0.0 0.00 0.00 0.00 27 1012.3
20211016230222 26 0 0.0 0.0 0.00 0.00 0.00 26 1012.2
20211016225700 26 0 0.0 0.0 0.00 0.00 0.00 27 1012.3
20211016225138 26 0 0.0 0.0 0.00 0.00 0.00 27 1012.3
20211016224616 26 0 0.0 0.0 0.00 0.00 0.00 27 1012.3
20211016224055 26 0 0.0 0.0 0.00 0.00 0.00 28 1012.3
20211016223533 26 0 0.0 0.0 0.00 0.00 0.00 28 1012.4
20211016223010 26 0 0.0 0.0 0.00 0.00 0.00 28 1012.4
20211016222448 26 0 0.0 0.0 0.00 0.00 0.00 29 1012.4
20211016221927 26 0 0.0 0.0 0.00 0.00 0.00 29 1012.4
20211016221405 25 0 0.0 0.0 0.00 0.00 0.00 28 1012.4
20211016220842 26 0 0.0 0.0 0.00 0.00 0.00 28 1012.4
20211016220320 26 0 0.0 0.0 0.00 0.00 0.00 27 1012.5
20211016215759 26 0 0.0 0.0 0.00 0.00 0.00 28 1012.5
20211016215236 26 0 0.0 0.0 0.00 0.00 0.00 30 1012.5
20211016214714 26 0 0.0 0.0 0.00 0.00 0.00 30 1012.5
20211016214152 26 0 0.0 0.0 0.00 0.00 0.00 31 1012.6
20211016213631 26 0 0.0 0.0 0.00 0.00 0.00 32 1012.8
20211016213108 26 0 0.0 0.0 0.00 0.00 0.00 35 1012.8
20211016212547 26 0 0.0 0.0 0.00 0.00 0.00 34 1012.9
20211016212024 26 0 0.0 0.0 0.00 0.00 0.00 36 1012.9
20211016211503 26 0 0.0 0.0 0.00 0.00 0.00 34 1013.0
20211016210940 27 0 0.0 0.0 0.00 0.00 0.00 30 1013.0
20211016210419 26 0 0.0 0.0 0.00 0.00 0.00 32 1013.1
20211016205856 26 0 0.0 0.0 0.00 0.00 0.00 32 1013.2
20211016205334 26 0 0.0 0.0 0.00 0.00 0.00 34 1013.3
20211016204813 26 0 0.0 0.0 0.00 0.00 0.00 35 1013.5
20211016204251 26 0 0.0 0.0 0.00 0.00 0.00 34 1013.6
20211016203729 26 0 0.0 0.0 0.00 0.00 0.00 34 1013.7
20211016203207 26 0 0.0 0.0 0.00 0.00 0.00 32 1013.8
20211016202645 26 0 0.0 0.0 0.00 0.00 0.00 31 1014.0
20211016202122 25 0 0.0 0.0 0.00 0.00 0.00 31 1014.0
20211016201601 25 0 0.0 0.0 0.00 0.00 0.00 31 1014.0
20211016201039 24 0 0.0 0.0 0.00 0.00 0.00 30 1014.1
20211016200517 24 0 0.0 0.0 0.00 0.00 0.00 31 1014.2
20211016195955 24 0 0.0 0.0 0.00 0.00 0.00 30 1014.3
20211016195432 24 0 0.0 0.0 0.00 0.00 0.00 31 1014.4
20211016194910 23 0 0.0 0.0 0.00 0.00 0.00 33 1014.4
20211016194348 23 0 0.0 0.0 0.00 0.00 0.00 34 1014.6
20211016193826 22 0 0.0 0.0 0.00 0.00 0.00 33 1014.7
20211016193304 22 0 0.0 0.0 0.00 0.00 0.00 37 1014.8
20211016192743 22 0 0.0 0.0 0.00 0.00 0.00 36 1014.9
20211016192220 22 0 0.0 0.0 0.00 0.00 0.00 38 1015.1
20211016191658 22 0 0.0 0.0 0.00 0.00 0.00 41 1015.1
20211016191137 21 0 0.0 0.0 0.00 0.00 0.00 42 1015.2
20211016190614 21 0 0.0 0.0 0.00 0.00 0.00 43 1015.2
20211016190052 21 0 0.0 0.0 0.00 0.00 0.00 44 1015.3
20211016185530 21 0 0.0 0.0 0.00 0.00 0.00 47 1015.4
20211016185009 20 0 0.0 0.0 0.00 0.00 0.00 48 1015.5
20211016184447 21 0 0.0 0.0 0.00 0.00 0.00 48 1015.6
20211016183924 20 0 0.0 0.0 0.00 0.00 0.00 49 1015.7
20211016183403 20 0 0.0 0.0 0.00 0.00 0.00 48 1015.7
20211016182840 20 0 0.0 0.0 0.00 0.00 0.00 48 1015.8
20211016182318 20 0 0.0 0.0 0.00 0.00 0.00 49 1015.8
20211016181757 20 0 0.0 0.0 0.00 0.00 0.00 49 1015.8
20211016181234 19 0 0.0 0.0 0.00 0.00 0.00 51 1015.8
20211016180712 19 0 0.0 0.0 0.00 0.00 0.00 51 1015.9
20211016180150 19 0 0.0 0.0 0.00 0.00 0.00 52 1016.0
20211016175628 19 0 0.0 0.0 0.00 0.00 0.00 52 1016.0
20211016175107 18 0 0.0 0.0 0.00 0.00 0.00 56 1016.1
20211016174544 18 0 0.0 0.0 0.00 0.00 0.00 56 1016.2
20211016174022 18 0 0.0 0.0 0.00 0.00 0.00 57 1016.3
20211016173500 18 0 0.0 0.0 0.00 0.00 0.00 57 1016.4
20211016172938 18 0 0.0 0.0 0.00 0.00 0.00 57 1016.3
20211016172417 18 0 0.0 0.0 0.00 0.00 0.00 58 1016.4
20211016171855 18 0 0.0 0.0 0.00 0.00 0.00 60 1016.3
20211016171332 17 0 0.0 0.0 0.00 0.00 0.00 64 1016.4
20211016170811 17 0 0.0 0.0 0.00 0.00 0.00 65 1016.5
20211016170248 17 0 0.0 0.0 0.00 0.00 0.00 66 1016.4
20211016165726 17 0 0.0 0.0 0.00 0.00 0.00 65 1016.4
20211016165205 16 0 0.0 0.0 0.00 0.00 0.00 63 1016.5
20211016164642 16 0 0.0 0.0 0.00 0.00 0.00 67 1016.5
20211016164121 16 0 0.0 0.0 0.00 0.00 0.00 66 1016.4
20211016163558 16 0 0.0 0.0 0.00 0.00 0.00 69 1016.5
20211016163037 16 0 0.0 0.0 0.00 0.00 0.00 70 1016.5
20211016162514 15 0 0.0 0.0 0.00 0.00 0.00 71 1016.6
20211016161953 15 0 0.0 0.0 0.00 0.00 0.00 71 1016.5
20211016161431 15 0 0.0 0.0 0.00 0.00 0.00 70 1016.5
20211016160909 14 0 0.0 0.0 0.00 0.00 0.00 70 1016.6
20211016160346 13 0 0.0 0.0 0.00 0.00 0.00 72 1016.6
20211016155824 13 0 0.0 0.0 0.00 0.00 0.00 72 1016.6
20211016155304 12 0 0.0 0.0 0.00 0.00 0.00 75 1016.7
20211016154740 12 0 0.0 0.0 0.00 0.00 0.00 77 1016.7
20211016154218 11 0 0.0 0.0 0.00 0.00 0.00 79 1016.8
20211016153656 11 0 0.0 0.0 0.00 0.00 0.00 81 1016.8
20211016153134 10 0 0.0 0.0 0.00 0.00 0.00 83 1016.9
20211016152613 10 0 0.0 0.0 0.00 0.00 0.00 83 1016.9
20211016152050 10 0 0.0 0.0 0.00 0.00 0.00 83 1016.8
20211016151528 10 0 0.0 0.0 0.00 0.00 0.00 83 1016.8